Regional Weather Roundup
Issued by NWS

Home | Current Version | Previous Version | Graphics & Text | Print | Product List | Glossary On
Versions: 1 2 3 4 5 6 7 8 9 10 11 12 13 14 15 16 17 18 19 20 21 22 23 24 25 26 27 28 29 30 31 32 33 34 35 36 37 38 39 40 41 42 43 44 45 46 47 48 49 50
000
ASUS43 KLOT 201306
RWRIL

ILLINOIS REGIONAL WEATHER ROUNDUP
NATIONAL WEATHER SERVICE CHICAGO/ROMEOVILLE IL
800 AM CDT SUN APR 20 2014

NOTE: "FAIR" INDICATES FEW OR NO CLOUDS BELOW 12,000 FEET WITH NO
SIGNIFICANT WEATHER AND/OR OBSTRUCTIONS TO VISIBILITY.

* THESE STATIONS ARE NOT UNDER NWS QUALITY CONTROL. THEY ALSO MAY NOT
  REPORT WEATHER SUCH AS PRECIPITATION OR FOG.

ILZ001-002-007-009-015-016-024-201400-
NORTHWEST ILLINOIS

CITY           SKY/WX    TMP DP  RH WIND       PRES   REMARKS
MOLINE         SUNNY     58  38  47 S7        30.13F
STERLING*      MOSUNNY   54  39  58 SE9       30.17F
SAVANNA*       PTSUNNY   55  39  56 S8        30.15F
$$

ILZ003-004-008-010-011-017-018-201400-
NORTH CENTRAL ILLINOIS

CITY           SKY/WX    TMP DP  RH WIND       PRES   REMARKS
ROCKFORD       PTSUNNY   52  37  56 S15       30.21S
FREEPORT*      PTSUNNY   54  41  61 S17       30.18S
ROCHELLE*      MOSUNNY   51  38  60 S12       30.19F
DE KALB*       SUNNY     46  34  61 S13       30.21F
PERU*          SUNNY     52  39  60 SE5       30.20F
$$

ILZ005-006-012>014-019>023-201400-
NORTHEAST ILLINOIS

CITY           SKY/WX    TMP DP  RH WIND       PRES   REMARKS
CHICAGO-OHARE  PTSUNNY   51  29  42 S8        30.23S
CHICAGO-MIDWAY PTSUNNY   51  29  42 S9        30.24S
AURORA         SUNNY     49  34  56 SE9       30.22F
LANSING*       MOSUNNY   49  30  48 S7        30.25S
WAUKEGAN       PTSUNNY   51  31  46 S12       30.21S
DUPAGE AIRPORT MOSUNNY   50  31  48 S12       30.22F
KANKAKEE*      PTSUNNY   46  34  63 SE7       30.26S
WHEELING       PTSUNNY   51  31  46 S12       30.23F
MORRIS*        MOSUNNY   51  32  48 SE10      30.22F
ROMEOVILLE*    MOSUNNY   48  31  52 S10       30.23F
NORTHERLY ISL    N/A     52  29  41 S5          N/A
$$

LMZ740>746-201400-
SOUTHERN LAKE MICHIGAN

STATION/POSITION SKY/WX   TEMP    WIND        PRES    VSBY  WAVE
                          AIR SEA DIR/SP/G                  HT/PER
                          (F)     (DEG/KT/KT) (MB)    (MI)  (FT/S)
WAUKEGAN HARBOR            47     180/  9/  9 1024.4S
HARRISON CRIB              48     180/ 17/ 18   N/A
BURNHAM HARBOR             52     180/  7/  9   N/A
CALUMET HARBOR             50     170/  7/  9 1024.6S
MICHIGAN CITY              50     160/ 10/ 13   N/A
$$

ILZ025>027-034>036-040-047-049-050-058-095>099-201400-
WEST-CENTRAL ILLINOIS

CITY           SKY/WX    TMP DP  RH WIND       PRES   REMARKS
QUINCY         PTSUNNY   59  40  49 S6        30.16R
GALESBURG*     SUNNY     56  40  54 SE8       30.17R
MACOMB*        MOSUNNY   55  41  59 S12       30.18S
JACKSONVILLE*  PTSUNNY   57  39  51 SE7       30.20S
PITTSFIELD*    MOSUNNY   59  43  55 SE7       30.18S
$$

ILZ028>032-037-038-041>044-048-051>054-059>061-201400-
CENTRAL ILLINOIS

CITY           SKY/WX    TMP DP  RH WIND       PRES   REMARKS
PONTIAC        MOSUNNY   50  39  66 SE10      30.22S
BLOOMINGTON    MOSUNNY   53  37  54 S17       30.22F
DECATUR        PTSUNNY   53  41  63 SE8       30.23S
PEORIA         SUNNY     56  40  55 S8        30.20S
LACON*         SUNNY     55  40  57 S5        30.19S
LINCOLN*       MOSUNNY   53  42  67 SE3       30.22S
SPRINGFIELD    MOSUNNY   60  40  47 S10       30.21S
TAYLORVILLE    MOSUNNY   55  39  54 SE9       30.22S
$$

ILZ033-039-045-046-055>057-062-063-201400-
EAST-CENTRAL ILLINOIS

CITY           SKY/WX    TMP DP  RH WIND       PRES   REMARKS
CHAMPAIGN      PTSUNNY   52  40  63 SE8       30.24S
RANTOUL*       MOSUNNY   51  39  62 CALM      30.25S
MATTOON        PTSUNNY   54  39  57 SE8       30.23R
PARIS*         MOSUNNY   53  41  63 SE6       30.26R
$$

ILZ079-100>102-201400-
SOUTHWEST ILLINOIS

CITY           SKY/WX    TMP DP  RH WIND       PRES   REMARKS
ALTON          SUNNY     52  43  71 E7        30.21S
BELLEVILLE     SUNNY     53  51  94 CALM      30.21S
CAHOKIA*       SUNNY     54  47  77 SE5       30.20F
SPARTA*        MOSUNNY   54  45  71 SE3       30.23R
$$

ILZ064>066-069>071-074>076-080>082-084>086-088>090-092>094-201400-
SOUTH-CENTRAL ILLINOIS

CITY           SKY/WX    TMP DP  RH WIND       PRES   REMARKS
CARBONDALE     MOSUNNY   52  48  86 CALM      30.22S
CAIRO*         SUNNY     58  49  71 NE5       30.22S
MARION         MOSUNNY   57  45  62 SE6       30.23S
MT. VERNON     MOSUNNY   55  37  50 NE3       30.24S
CENTRALIA*       N/A     57  40  52 CALM      30.23S
SALEM*         MOSUNNY   56  42  59 SE6       30.23S
METROPOLIS*    SUNNY     57  43  61 CALM      30.22R
$$

ILZ067-068-072-073-078-083-087-091-201400-
SOUTHEAST ILLINOIS

CITY           SKY/WX    TMP DP  RH WIND       PRES   REMARKS
FAIRFIELD*     SUNNY     57  46  67 CALM      30.24R
HARRISBURG*    SUNNY     57  47  68 CALM      30.24S
ROBINSON*      MOSUNNY   54  47  76 CALM      30.26S
CARMI*         SUNNY     55  48  76 CALM      30.24R
$$

ABBREVIATIONS USED IN REMARKS
   TC - TEMPERATURE IN CELSIUS
  WCI - WIND CHILL INDEX
   HX - HEAT INDEX
  VSB - VISIBILITY
$$




USA.gov is the U.S. government's official web portal to all federal, state and local government web resources and services.